Content
SEND FEEDBACK

Daily
Averages
Monthly
Summary
United States of America

SOUTH LAKE TAHOE, CALIFORNIA


Home > North America > United States > California
Elevation: 6263 feet     Latitude: 38 53N     Longitude: 119 59W

WEATHER
 
SELECT A DAY
Number of Records: 178,820;   Date Range: 1/1/95 - 12/24/14
 
SHARE

PRINT THIS DATA

[ ← Previous Day ]
WEATHER ALMANAC - SEPTEMBER 14, 2013
[ Next Day → ]
[ °C ]   °F
Weather ElementAverageHighLow
Temperature61.3 °F78.1 °F (1:53 pm)44.1 °F (6:53 am)
Dewpoint43.8 °F48 °F (10:53 am)39 °F (6:53 am)
Humidity57 %83 % (4:53 am)26 % (2:53 pm)
Barometer29.90 in29.96 in (6:53 am)29.86 in (1:53 pm)
Wind Speed1.5 mph9.2 mph (1:53 pm)
Weather ElementAverage
Visibility10 mi
Wind DirectionNNE (36.5 °)

Weather ElementTotal
Precipitation---
Heating Degree Days3.9 (Base 65)
Growing Degree Days11.1 (Base 50)
Averaged from 23 records on September 14, 2013
WEATHER CONDITIONS BREAKOUT
WIND DIRECTION BREAKOUT
WEATHER BY HOUR - SEPTEMBER 14, 2013
[ °C ]   °F
Local TimeTemperatureDewpointHumidityBarometerVisibilityWind DirectionWind SpeedGust SpeedPrecipitationEventsConditions
1:53 AM50.0 °F44.1 °F80 %29.90 in10.0 miCalmClear
2:53 AM48.9 °F43.0 °F80 %29.91 in10.0 miSouth (190°)3.5 mphClear
3:53 AM48.0 °F42.1 °F80 %29.92 in10.0 miCalmClear
4:53 AM46.0 °F41.0 °F83 %29.93 in10.0 miCalmClear
5:53 AM45.0 °F39.9 °F82 %29.94 in10.0 miCalmClear
6:53 AM44.1 °F39.0 °F82 %29.96 in10.0 miSouth (190°)3.5 mphClear
7:53 AM48.0 °F42.1 °F80 %29.96 in10.0 miCalmClear
8:53 AM57.0 °F46.0 °F67 %29.94 in10.0 miCalmClear
9:53 AM68.0 °F46.0 °F45 %29.92 in10.0 miCalmClear
10:53 AM72.0 °F48.0 °F43 %29.91 in10.0 miNE (40°)6.9 mphClear
11:53 AM73.9 °F45.0 °F35 %29.90 in10.0 miNNE (30°)5.8 mphClear
12:53 PM77.0 °F44.1 °F31 %29.88 in10.0 miCalmClear
1:53 PM78.1 °F41.0 °F27 %29.86 in10.0 miNNE (30°)9.2 mphClear
2:53 PM77.0 °F39.9 °F26 %29.86 in10.0 miCalmScattered Clouds
3:53 PM73.9 °F42.1 °F32 %29.86 in10.0 miCalm0.00 in
4:53 PM73.0 °F46.0 °F38 %29.86 in10.0 miCalmPartly Cloudy
5:53 PM73.0 °F46.0 °F38 %29.87 in10.0 miNorth (360°)4.6 mphOvercast
6:53 PM68.0 °F48.0 °F49 %29.89 in10.0 miCalmPartly Cloudy
7:53 PM64.0 °F46.9 °F54 %29.91 in10.0 miCalmScattered Clouds
8:53 PM61.0 °F45.0 °F56 %29.90 in10.0 miCalmClear
9:53 PM57.0 °F45.0 °F64 %29.88 in10.0 miCalmClear
10:53 PM55.0 °F44.1 °F67 %29.88 in10.0 miCalmClear
11:53 PM52.0 °F43.0 °F71 %29.88 in10.0 miCalmClear
Hourly data recorded from KTVL, located miles away from South Lake Tahoe, California







STORIES FROM OUR PARTNERS